EW7269 Fredericksburg VA US current weather conditions

sailwx.info

Wind from 201

Air temperature 21.7° C
Dewpoint 21.5° C

Last reported at 2020-Aug-10 08:00 UTC.
Time now 2020-Aug-10 08:31 UTC

Location: N 38°27' W 077°35'.
View on Google Maps.

See reports from other nearby stations

  
Tides and Currents Weather Stations Pressure Air Temp Water Temp Dewpoint Dewpoint Depression Visibility Wind Speed Wind Dir Waves Ship Positions
date/time (UTC)wind fromknots sea level pressurealtimeterstation pressurevisibilityair tempwater tempwave heightnotes
2020-Aug-10 08:05 21.7
2020-Aug-10 08:00 201 21.7
2020-Aug-10 07:55 329 22.2
2020-Aug-10 07:50 295 0 gusting 1 22.2
2020-Aug-10 07:46 21.7
2020-Aug-10 07:40 163 22.2
2020-Aug-10 07:35 168 22.2
2020-Aug-10 07:30 22.2
2020-Aug-10 07:25 22.2
2020-Aug-10 07:20 211 22.2
2020-Aug-10 07:15 22.2
2020-Aug-10 07:10 22.2
2020-Aug-10 07:05 22.8
2020-Aug-10 07:00 268 22.8
2020-Aug-10 06:55 279 22.8
2020-Aug-10 06:50 22.8
2020-Aug-10 06:45 242 22.8
2020-Aug-10 06:40 239 22.8
2020-Aug-10 06:35 236 22.8
2020-Aug-10 06:25 223 23.3
2020-Aug-10 06:20 236 0 gusting 1 22.8
2020-Aug-10 06:15 225 22.8
2020-Aug-10 06:10 259 23.3
2020-Aug-10 06:05 250 0 gusting 1 23.3
2020-Aug-10 06:00 228 0 gusting 1 23.3
2020-Aug-10 05:55 220 23.3
2020-Aug-10 05:50 228 23.3
2020-Aug-10 05:45 234 0 gusting 0 23.3
2020-Aug-10 05:40 228 23.3
2020-Aug-10 05:35 241 23.3
2020-Aug-10 05:30 248 0 gusting 1 22.8
2020-Aug-10 05:25 228 22.8
2020-Aug-10 05:20 228 22.8
2020-Aug-10 05:15 22.8
2020-Aug-10 05:10 22.8
2020-Aug-10 05:05 208 22.8
2020-Aug-10 05:00 205 22.8
2020-Aug-10 04:55 202 23.3
2020-Aug-10 04:50 207 23.3
2020-Aug-10 04:45 23.3
2020-Aug-10 04:40 23.3
2020-Aug-10 04:35 23.3
2020-Aug-10 04:30 23.3
2020-Aug-10 04:25 207 23.3
2020-Aug-10 04:20 218 23.3
2020-Aug-10 04:15 128 23.9
2020-Aug-10 04:10 23.9
2020-Aug-10 04:05 135 23.9
2020-Aug-10 04:00 227 0 gusting 1 24.4
2020-Aug-10 03:55 250 0 gusting 1 24.4
2020-Aug-10 03:50 285 0 gusting 1 23.9
2020-Aug-10 03:45 24.4
2020-Aug-10 03:40 222 24.4
2020-Aug-10 03:35 228 24.4
2020-Aug-10 03:30 221 24.4
2020-Aug-10 03:25 238 24.4
2020-Aug-10 03:20 196 24.4
2020-Aug-10 03:15 276 0 gusting 1 25.0
2020-Aug-10 03:10 234 25.0
2020-Aug-10 03:05 281 0 gusting 1 24.4
2020-Aug-10 03:00 249 0 gusting 1 24.4
2020-Aug-10 02:55 272 0 gusting 1 24.4
2020-Aug-10 02:50 175 24.4
2020-Aug-10 02:45 305 24.4
2020-Aug-10 02:40 229 24.4
2020-Aug-10 02:35 175 24.4
2020-Aug-10 02:30 345 24.4
2020-Aug-10 02:25 305 24.4
2020-Aug-10 02:20 262 24.4
2020-Aug-10 02:15 176 24.4
2020-Aug-10 02:10 141 24.4
2020-Aug-10 02:05 059 0 gusting 0 24.4
2020-Aug-10 02:00 070 24.4
2020-Aug-10 01:55 125 24.4
2020-Aug-10 01:50 24.4
2020-Aug-10 01:45 126 24.4
2020-Aug-10 01:40 126 0 gusting 0 25.0
2020-Aug-10 01:35 126 25.0
2020-Aug-10 01:30 126 25.0
2020-Aug-10 01:25 25.6
2020-Aug-10 01:20 126 25.6
2020-Aug-10 01:15 25.6
2020-Aug-10 01:10 061 25.6
2020-Aug-10 01:05 153 25.6
2020-Aug-10 01:00 162 0 gusting 1 25.6
2020-Aug-10 00:55 134 25.6
2020-Aug-10 00:50 093 0 gusting 1 25.6
2020-Aug-10 00:45 086 26.1
2020-Aug-10 00:40 120 0 gusting 0 26.1
2020-Aug-10 00:35 119 0 gusting 0 26.1
2020-Aug-10 00:30 112 0 gusting 1 26.1
2020-Aug-10 00:25 111 0 gusting 1 26.7
2020-Aug-10 00:20 123 26.7
2020-Aug-10 00:15 126 0 gusting 1 27.2
2020-Aug-10 00:10 138 0 gusting 1 27.2
2020-Aug-10 00:05 154 0 gusting 1 26.7
2020-Aug-10 00:00 115 0 gusting 1 26.7
2020-Aug-09 23:55 136 27.2
2020-Aug-09 23:50 137 27.2
2020-Aug-09 23:45 27.8
2020-Aug-09 23:40 28.3
2020-Aug-09 23:35 28.3
2020-Aug-09 23:30 136 28.3
2020-Aug-09 23:25 28.9
2020-Aug-09 23:20 113 28.9
2020-Aug-09 23:15 142 1 gusting 1 28.9
2020-Aug-09 23:10 197 28.9
2020-Aug-09 23:05 197 28.9
2020-Aug-09 23:01 29.4
2020-Aug-09 22:55 29.4
2020-Aug-09 22:50 199 30.6
2020-Aug-09 22:45 217 30.6
2020-Aug-09 22:40 236 30.6
2020-Aug-09 22:35 227 0 gusting 0 30.6
2020-Aug-09 22:30 236 0 gusting 1 30.6
2020-Aug-09 22:25 248 0 gusting 1 31.1
2020-Aug-09 22:20 271 0 gusting 1 31.1
2020-Aug-09 22:15 247 0 gusting 2 31.1
2020-Aug-09 22:10 260 0 gusting 2 31.1
2020-Aug-09 22:05 211 0 gusting 0 31.7
2020-Aug-09 22:00 014 0 gusting 2 31.7
2020-Aug-09 21:55 223 31.7
2020-Aug-09 21:50 31.1
2020-Aug-09 21:45 132 31.1
2020-Aug-09 21:40 132 30.6
2020-Aug-09 21:35 30.0
2020-Aug-09 21:30 105 30.0
2020-Aug-09 21:25 259 0 gusting 1 29.4
2020-Aug-09 21:20 264 1 gusting 5 30.0
2020-Aug-09 21:15 203 30.6
2020-Aug-09 21:10 31.1
2020-Aug-09 21:05 156 31.1
2020-Aug-09 21:00 156 32.2
2020-Aug-09 20:55 31.7
2020-Aug-09 20:50 158 31.1
2020-Aug-09 20:45 30.0
2020-Aug-09 20:40 173 29.4
2020-Aug-09 20:35 174 0 gusting 0 28.9
2020-Aug-09 20:30 174 29.4
2020-Aug-09 20:25 180 30.0
2020-Aug-09 20:20 230 0 gusting 1 30.0
2020-Aug-09 20:15 181 30.0
2020-Aug-09 20:10 208 0 gusting 1 30.6
2020-Aug-09 20:05 193 0 gusting 1 31.1
2020-Aug-09 20:00 242 0 gusting 2 31.1
2020-Aug-09 19:55 229 1 gusting 2 31.7
2020-Aug-09 19:50 270 1 gusting 2 31.7
2020-Aug-09 19:45 268 1 gusting 4 32.2
2020-Aug-09 19:40 259 1 gusting 5 32.2
2020-Aug-09 19:35 261 1 gusting 2 32.2
2020-Aug-09 19:30 229 0 gusting 2 31.7
2020-Aug-09 19:25 31.1
2020-Aug-09 19:20 251 0 gusting 1 31.1
2020-Aug-09 19:15 192 0 gusting 1 31.1
2020-Aug-09 19:10 143 0 gusting 2 30.6
2020-Aug-09 19:05 218 0 gusting 1 30.6
2020-Aug-09 19:00 107 1 gusting 2 31.7
2020-Aug-09 18:55 169 0 gusting 1 31.1
2020-Aug-09 18:50 234 1 gusting 4 31.7
2020-Aug-09 18:45 253 2 gusting 4 32.2
2020-Aug-09 18:40 227 0 gusting 1 31.1
2020-Aug-09 18:35 253 0 gusting 2 31.1
2020-Aug-09 18:30 209 1 gusting 4 31.7
2020-Aug-09 18:25 141 0 gusting 1 31.1
2020-Aug-09 18:20 180 0 gusting 0 30.6
2020-Aug-09 18:15 231 0 gusting 2 30.6
2020-Aug-09 18:10 217 0 gusting 2 31.1
2020-Aug-09 18:05 265 2 gusting 4 31.1
2020-Aug-09 18:00 254 1 gusting 5 31.1
2020-Aug-09 17:55 235 0 gusting 1 31.1
2020-Aug-09 17:50 257 2 gusting 5 31.1
2020-Aug-09 17:45 276 3 gusting 4 31.1
2020-Aug-09 17:40 176 1 gusting 6 30.6
2020-Aug-09 17:35 164 1 gusting 4 30.0
2020-Aug-09 17:30 072 2 gusting 5 30.6
2020-Aug-09 17:25 269 1 gusting 4 30.6
2020-Aug-09 17:20 260 1 gusting 5 30.6
2020-Aug-09 17:15 254 1 gusting 4 30.6
2020-Aug-09 17:10 253 1 gusting 2 30.6
2020-Aug-09 17:05 249 1 gusting 2 30.6
2020-Aug-09 17:00 232 1 gusting 4 30.0
2020-Aug-09 16:55 140 1 gusting 6 30.0
2020-Aug-09 16:50 228 0 gusting 2 30.0
2020-Aug-09 16:45 195 1 gusting 2 30.6
2020-Aug-09 16:40 272 1 gusting 4 30.0
2020-Aug-09 16:35 270 2 gusting 4 30.0
2020-Aug-09 16:30 157 1 gusting 4 30.0
2020-Aug-09 16:25 166 1 gusting 1 30.6
2020-Aug-09 16:20 259 2 gusting 5 30.0
2020-Aug-09 16:15 257 1 gusting 5 30.6
2020-Aug-09 16:10 204 0 gusting 1 30.6
2020-Aug-09 16:05 196 0 gusting 0 29.4
2020-Aug-09 16:00 194 1 gusting 4 30.0
2020-Aug-09 15:55 259 2 gusting 5 29.4
2020-Aug-09 15:50 255 0 gusting 2 29.4
2020-Aug-09 15:45 222 1 gusting 2 30.0
2020-Aug-09 15:40 245 2 gusting 5 29.4
2020-Aug-09 15:35 205 1 gusting 2 29.4
2020-Aug-09 15:30 183 1 gusting 4 29.4
2020-Aug-09 15:25 197 0 gusting 2 29.4
2020-Aug-09 15:20 239 1 gusting 4 28.9
2020-Aug-09 15:15 250 0 gusting 2 28.9
2020-Aug-09 15:10 245 1 gusting 2 28.9
2020-Aug-09 15:05 220 0 gusting 1 28.9
2020-Aug-09 15:00 244 0 gusting 2 28.3
2020-Aug-09 14:55 272 1 gusting 2 28.3
2020-Aug-09 14:50 236 1 gusting 2 27.8
2020-Aug-09 14:45 254 1 gusting 4 27.8
2020-Aug-09 14:40 241 0 gusting 4 28.3
2020-Aug-09 14:35 266 1 gusting 6 28.9
2020-Aug-09 14:30 165 0 gusting 1 28.9
2020-Aug-09 14:25 245 0 gusting 1 28.9
2020-Aug-09 14:20 167 0 gusting 1 28.9
2020-Aug-09 14:15 242 0 gusting 2 28.3
2020-Aug-09 14:10 252 1 gusting 4 28.3
2020-Aug-09 14:05 256 0 gusting 2 28.3
2020-Aug-09 14:00 275 0 gusting 1 28.3
2020-Aug-09 13:55 187 0 gusting 2 27.8
2020-Aug-09 13:50 230 0 gusting 1 27.8
2020-Aug-09 13:45 189 0 gusting 0 27.8
2020-Aug-09 13:41 244 0 gusting 1 28.9
2020-Aug-09 13:35 221 28.3
2020-Aug-09 13:30 177 27.8
2020-Aug-09 13:25 296 0 gusting 1 27.8
2020-Aug-09 13:20 26.7
2020-Aug-09 13:15 222 0 gusting 1 26.7
2020-Aug-09 13:10 241 0 gusting 1 26.1
2020-Aug-09 13:05 198 0 gusting 2 25.6
2020-Aug-09 13:00 253 0 gusting 1 25.6
2020-Aug-09 12:55 220 0 gusting 1 25.6
2020-Aug-09 12:50 200 0 gusting 1 25.6
2020-Aug-09 12:45 217 0 gusting 1 25.0
2020-Aug-09 12:40 230 0 gusting 1 25.0
2020-Aug-09 12:35 183 0 gusting 0 24.4
2020-Aug-09 12:30 246 0 gusting 1 24.4
2020-Aug-09 12:25 188 0 gusting 0 23.9
2020-Aug-09 12:20 192 23.3
2020-Aug-09 12:15 224 23.3
2020-Aug-09 12:10 255 23.3
2020-Aug-09 12:05 200 0 gusting 0 23.3
2020-Aug-09 12:00 225 22.8
2020-Aug-09 11:55 250 0 gusting 1 22.8
2020-Aug-09 11:50 197 0 gusting 1 22.8
2020-Aug-09 11:45 262 0 gusting 1 22.8
2020-Aug-09 11:40 256 0 gusting 0 22.2
2020-Aug-09 11:35 256 0 gusting 1 22.2
2020-Aug-09 11:30 211 21.7
2020-Aug-09 11:25 195 21.7
2020-Aug-09 11:20 260 0 gusting 0 21.7
2020-Aug-09 11:15 167 21.7
2020-Aug-09 11:10 099 21.1
2020-Aug-09 11:05 153 21.1
2020-Aug-09 11:00 139 21.1
2020-Aug-09 10:55 178 21.1
2020-Aug-09 10:50 21.1
2020-Aug-09 10:46 21.1
2020-Aug-09 10:41 20.6
2020-Aug-09 10:30 20.6
2020-Aug-09 10:25 20.6
2020-Aug-09 10:23 20.6
2020-Aug-09 10:15 20.6
2020-Aug-09 10:14 20.6
2020-Aug-09 10:05 21.1
2020-Aug-09 10:00 20.6
2020-Aug-09 09:55 21.1
2020-Aug-09 09:50 21.1
2020-Aug-09 09:45 21.1
2020-Aug-09 09:41 21.1
2020-Aug-09 09:35 21.1
2020-Aug-09 09:30 21.1
2020-Aug-09 09:28 21.7
2020-Aug-09 09:21 236 21.7
2020-Aug-09 09:15 21.7
2020-Aug-09 09:11 230 21.1
2020-Aug-09 09:06 21.1
2020-Aug-09 09:00 21.1
2020-Aug-09 08:55 21.1
2020-Aug-09 08:50 21.1
2020-Aug-09 08:45 21.1
2020-Aug-09 08:42 21.1
2020-Aug-09 08:35 21.1
2020-Aug-09 08:30 21.7
2020-Aug-09 08:25 21.7
2020-Aug-09 08:21 21.1
2020-Aug-09 08:15 21.7
2020-Aug-09 08:11 21.7
2020-Aug-09 08:05 21.7
2020-Aug-09 08:00 21.7
2020-Aug-09 07:55 21.7
2020-Aug-09 07:50 22.2
2020-Aug-09 07:45 22.2
2020-Aug-09 07:41 249 22.2
2020-Aug-09 07:35 268 0 gusting 0 22.2
2020-Aug-09 07:30 223 22.2
2020-Aug-09 07:27 231 0 gusting 0 22.2
2020-Aug-09 07:20 308 0 gusting 1 22.2
2020-Aug-09 07:15 221 22.2
2020-Aug-09 07:10 217 22.2
2020-Aug-09 07:07 181 22.2
2020-Aug-09 07:00 265 0 gusting 1 22.2
2020-Aug-09 06:56 22.2
2020-Aug-09 06:50 22.2
2020-Aug-09 06:45 22.2
2020-Aug-09 06:41 256 22.2
2020-Aug-09 06:35 239 0 gusting 0 22.2
2020-Aug-09 06:25 249 0 gusting 1 22.2
2020-Aug-09 06:20 231 22.2
2020-Aug-09 06:15 22.2
2020-Aug-09 06:10 238 22.2
2020-Aug-09 06:05 237 0 gusting 0 22.8
2020-Aug-09 06:00 242 22.8
2020-Aug-09 05:56 238 0 gusting 1 22.8
2020-Aug-09 05:50 265 0 gusting 1 22.8
2020-Aug-09 05:45 252 0 gusting 0 22.8
2020-Aug-09 05:40 254 1 gusting 2 22.8
2020-Aug-09 05:35 243 0 gusting 1 22.2
2020-Aug-09 05:30 296 0 gusting 1 22.2
2020-Aug-09 05:25 203 21.7
2020-Aug-09 05:20 185 21.7
2020-Aug-09 05:15 21.7
2020-Aug-09 05:10 226 21.7
2020-Aug-09 05:05 298 21.7
2020-Aug-09 05:00 21.7
2020-Aug-09 04:55 21.7
2020-Aug-09 04:50 21.7
2020-Aug-09 04:47 21.7
2020-Aug-09 04:40 182 21.7
2020-Aug-09 04:35 21.7
2020-Aug-09 04:30 21.7
2020-Aug-09 04:25 21.7
2020-Aug-09 04:20 21.7
2020-Aug-09 04:15 21.7
2020-Aug-09 04:10 21.7
2020-Aug-09 04:05 21.7
2020-Aug-09 04:01 21.7
2020-Aug-09 03:55 21.7
2020-Aug-09 03:50 21.7
2020-Aug-09 03:45 21.7
2020-Aug-09 03:41 162 21.7
2020-Aug-09 03:35 162 21.7
2020-Aug-09 03:30 162 21.7
2020-Aug-09 03:25 162 21.7
2020-Aug-09 03:21 21.7
2020-Aug-09 03:15 162 22.2
2020-Aug-09 03:10 22.2
2020-Aug-09 03:05 22.2
2020-Aug-09 03:00 22.2
2020-Aug-09 02:55 22.2
2020-Aug-09 02:50 22.2
2020-Aug-09 02:45 22.2
2020-Aug-09 02:40 22.2
2020-Aug-09 02:35 22.2
2020-Aug-09 02:30 22.2
2020-Aug-09 02:25 22.8
2020-Aug-09 02:20 22.2
2020-Aug-09 02:15 22.2
2020-Aug-09 02:10 22.8
2020-Aug-09 02:05 22.8
2020-Aug-09 02:00 22.8
2020-Aug-09 01:55 22.8
2020-Aug-09 01:50 22.8
2020-Aug-09 01:45 22.8
2020-Aug-09 01:40 22.8
2020-Aug-09 01:35 23.3
2020-Aug-09 01:30 23.3
2020-Aug-09 01:25 23.3
2020-Aug-09 01:20 23.3
2020-Aug-09 01:15 23.3
2020-Aug-09 01:10 163 23.3
2020-Aug-09 01:05 23.3
2020-Aug-09 01:00 23.9
2020-Aug-09 00:55 161 23.9
2020-Aug-09 00:50 23.9
2020-Aug-09 00:45 23.9
2020-Aug-09 00:40 163 23.9
2020-Aug-09 00:35 24.4
2020-Aug-09 00:30 24.4
2020-Aug-09 00:25 24.4
2020-Aug-09 00:21 24.4
2020-Aug-09 00:15 25.0
2020-Aug-09 00:10 25.0
2020-Aug-09 00:05 156 25.0
2020-Aug-09 00:00 25.0
2020-Aug-08 23:55 25.6
2020-Aug-08 23:50 25.6
2020-Aug-08 23:45 157 25.6
2020-Aug-08 23:41 26.1
2020-Aug-08 23:35 26.1
2020-Aug-08 23:30 156 26.1
2020-Aug-08 23:25 147 26.7
2020-Aug-08 23:20 116 26.7
2020-Aug-08 23:15 148 26.7
2020-Aug-08 23:10 148 27.2
2020-Aug-08 23:05 27.8
2020-Aug-08 23:00 27.8
2020-Aug-08 22:55 120 27.8
2020-Aug-08 22:50 135 27.8
2020-Aug-08 22:45 106 0 gusting 1 27.8
2020-Aug-08 22:40 130 27.8
2020-Aug-08 22:35 116 27.8
2020-Aug-08 22:30 153 0 gusting 1 27.8
2020-Aug-08 22:25 171 0 gusting 2 27.8
2020-Aug-08 22:20 151 27.8
2020-Aug-08 22:15 185 0 gusting 0 27.8
2020-Aug-08 22:10 183 0 gusting 1 27.8
2020-Aug-08 22:05 173 0 gusting 0 27.2
2020-Aug-08 22:00 159 27.2
2020-Aug-08 21:55 140 0 gusting 0 27.8
2020-Aug-08 21:50 163 0 gusting 1 28.3
2020-Aug-08 21:45 100 1 gusting 2 28.9
2020-Aug-08 21:40 154 0 gusting 0 28.9
2020-Aug-08 21:35 163 0 gusting 1 30.0
2020-Aug-08 21:30 096 31.1
2020-Aug-08 21:25 182 30.6
2020-Aug-08 21:20 30.0
2020-Aug-08 21:15 276 0 gusting 1 30.0
2020-Aug-08 21:10 239 0 gusting 1 30.0
2020-Aug-08 21:05 272 0 gusting 1 30.0
2020-Aug-08 21:00 249 1 gusting 2 30.0
2020-Aug-08 20:55 284 30.0
2020-Aug-08 20:50 139 30.0
2020-Aug-08 20:45 228 0 gusting 0 29.4
2020-Aug-08 20:41 200 29.4
2020-Aug-08 20:35 159 0 gusting 1 29.4
2020-Aug-08 20:30 343 28.9
2020-Aug-08 20:25 172 1 gusting 2 28.3
2020-Aug-08 20:20 27.8
2020-Aug-08 20:15 27.8
2020-Aug-08 20:10 141 27.8
2020-Aug-08 20:05 27.8
2020-Aug-08 20:00 060 0 gusting 0 28.3
2020-Aug-08 19:55 129 28.3
2020-Aug-08 19:50 142 0 gusting 4 28.9
2020-Aug-08 19:45 220 0 gusting 2 28.3
2020-Aug-08 19:40 144 0 gusting 1 29.4
2020-Aug-08 19:35 291 0 gusting 1 30.0
2020-Aug-08 19:30 239 28.9
2020-Aug-08 19:25 173 28.3
2020-Aug-08 19:20 205 0 gusting 1 28.3
2020-Aug-08 19:15 149 28.3
2020-Aug-08 19:10 172 28.3
2020-Aug-08 19:05 240 28.3
2020-Aug-08 19:00 235 0 gusting 1 28.3
2020-Aug-08 18:55 105 28.3
2020-Aug-08 18:50 27.8
2020-Aug-08 18:45 115 27.8
2020-Aug-08 18:40 224 0 gusting 1 28.3
2020-Aug-08 18:35 234 0 gusting 1 28.3
2020-Aug-08 18:30 215 0 gusting 1 28.3
2020-Aug-08 18:25 118 28.3
2020-Aug-08 18:20 072 28.3
2020-Aug-08 18:15 276 0 gusting 2 28.9
2020-Aug-08 18:11 177 28.3
2020-Aug-08 18:05 183 0 gusting 0 28.3
2020-Aug-08 18:00 246 0 gusting 0 27.8
2020-Aug-08 17:55 103 0 gusting 0 27.8
2020-Aug-08 17:50 265 0 gusting 2 27.2
2020-Aug-08 17:45 241 0 gusting 1 27.2
2020-Aug-08 17:40 233 0 gusting 1 27.2
2020-Aug-08 17:35 134 27.2
2020-Aug-08 17:30 263 27.2
2020-Aug-08 17:25 196 27.2
2020-Aug-08 17:20 155 27.2
2020-Aug-08 17:15 120 27.2
2020-Aug-08 17:10 144 0 gusting 2 27.8
2020-Aug-08 17:05 131 27.2
2020-Aug-08 17:00 237 0 gusting 1 26.7
2020-Aug-08 16:55 185 1 gusting 2 26.7
2020-Aug-08 16:50 176 0 gusting 1 26.7
2020-Aug-08 16:45 208 0 gusting 1 26.1
2020-Aug-08 16:40 187 0 gusting 1 25.0
2020-Aug-08 16:35 171 1 gusting 2 25.0
2020-Aug-08 16:30 152 1 gusting 1 25.0
2020-Aug-08 16:25 174 0 gusting 0 25.0
2020-Aug-08 16:20 194 0 gusting 0 25.0
2020-Aug-08 16:16 228 0 gusting 1 25.0
2020-Aug-08 16:10 252 0 gusting 1 25.6
2020-Aug-08 16:05 142 26.1
2020-Aug-08 16:00 175 26.1
2020-Aug-08 15:55 121 26.1
2020-Aug-08 15:50 181 25.0
2020-Aug-08 15:45 144 25.0
2020-Aug-08 15:40 186 24.4
2020-Aug-08 15:35 324 0 gusting 0 25.0
2020-Aug-08 15:30 201 24.4
2020-Aug-08 15:25 24.4
2020-Aug-08 15:20 115 23.9
2020-Aug-08 15:15 23.9
2020-Aug-08 15:10 23.3
2020-Aug-08 15:05 186 0 gusting 0 23.3
2020-Aug-08 15:00 171 23.3
2020-Aug-08 14:55 161 22.8
2020-Aug-08 14:50 058 22.8
2020-Aug-08 14:45 23.3
2020-Aug-08 14:40 214 22.8
2020-Aug-08 14:35 22.8
2020-Aug-08 14:30 22.8
2020-Aug-08 14:25 304 22.8
2020-Aug-08 14:20 163 22.2
2020-Aug-08 14:15 097 22.2
2020-Aug-08 14:10 22.2
2020-Aug-08 14:05 073 22.2
2020-Aug-08 14:00 22.2
2020-Aug-08 13:56 072 22.2
2020-Aug-08 13:50 094 22.2
2020-Aug-08 13:45 22.2
2020-Aug-08 13:40 074 22.2
2020-Aug-08 13:35 090 22.2
2020-Aug-08 13:30 22.2
2020-Aug-08 13:25 22.2
2020-Aug-08 13:20 015 0 gusting 0 22.2
2020-Aug-08 13:15 088 22.2
2020-Aug-08 13:10 098 22.2
2020-Aug-08 13:05 22.2
2020-Aug-08 13:00 22.2
2020-Aug-08 12:55 102 21.7
2020-Aug-08 12:50 21.7
2020-Aug-08 12:45 21.7
2020-Aug-08 12:40 21.7
2020-Aug-08 12:35 21.7
2020-Aug-08 12:30 21.7
2020-Aug-08 12:25 124 21.7
2020-Aug-08 12:20 21.7
2020-Aug-08 12:15 21.7
2020-Aug-08 12:10 21.7
2020-Aug-08 12:05 21.7
2020-Aug-08 12:00 21.7
2020-Aug-08 11:55 21.7
2020-Aug-08 11:50 21.7
2020-Aug-08 11:45 21.7
2020-Aug-08 11:40 21.7
2020-Aug-08 11:35 21.7
2020-Aug-08 11:30 21.7
2020-Aug-08 11:25 147 21.7
2020-Aug-08 11:20 21.7
2020-Aug-08 11:15 115 21.7
2020-Aug-08 11:10 113 21.7
2020-Aug-08 11:05 21.7
2020-Aug-08 11:00 21.7
2020-Aug-08 10:55 21.7
2020-Aug-08 10:50 21.7
2020-Aug-08 10:45 21.7
2020-Aug-08 10:40 21.7
2020-Aug-08 10:35 21.7
2020-Aug-08 10:30 21.7
2020-Aug-08 10:25 21.7
2020-Aug-08 10:20 21.7
2020-Aug-08 10:15 141 21.7
2020-Aug-08 10:10 141 21.7
2020-Aug-08 10:05 21.7
2020-Aug-08 10:00 21.7
2020-Aug-08 09:55 21.1
2020-Aug-08 09:50 21.1
2020-Aug-08 09:45 21.1
2020-Aug-08 09:40 21.1
2020-Aug-08 09:35 21.1
2020-Aug-08 09:30 21.1
2020-Aug-08 09:25 21.1
2020-Aug-08 09:20 141 21.1
2020-Aug-08 09:15 141 21.1
2020-Aug-08 09:10 21.1
2020-Aug-08 09:05 21.1
2020-Aug-08 09:00 21.1
2020-Aug-08 08:55 21.1
2020-Aug-08 08:50 21.1
2020-Aug-08 08:45 21.1
2020-Aug-08 08:40 21.1
2020-Aug-08 08:35 21.7
2020-Aug-08 08:30 21.7
2020-Aug-08 08:25 21.7
2020-Aug-08 08:21 21.7
2020-Aug-08 08:15 21.7
2020-Aug-08 08:10 21.7
2020-Aug-08 08:05 21.7
2020-Aug-08 08:00 21.7